Location: Acorn Hill
(36.4429°N, 76.5469°W)
Time: 03:33:15
(UTC+00:00)

N. Korean satellite - Pass Details

Date: 30 July 2021
Orbit: 448 x 498 km, 97.3° (Epoch: 22 September)

Event Time Altitude Azimuth Distance (km) Brightness Sun altitude
Rises 09:34:09 0° 29° (NNE) 2,553 11.4 -7.5°
Reaches altitude 10° 09:36:44 10° 49° (NE) 1,656 10.9 -7.0°
Maximum altitude 09:39:16 18° 94° (E) 1,214 9.5 -6.6°
Drops below altitude 10° 09:41:45 10° 140° (SE) 1,625 9.4 -6.2°
Sets 09:44:14 0° 160° (SSE) 2,484 10.1 -5.7°
